Time,TemperatureF,DewpointF,PressureIn,WindDirection,WindDirectionDegrees,WindSpeedMPH,WindSpeedGustMPH,Humidity,HourlyPrecipIn,Conditions,Clouds,dailyrainin,SolarRadiationWatts/m^2,SoftwareType,DateUTC
2013-04-07 00:04:00,40.8,36.0,29.85,WSW,238,0.0,0.0,83,0.04,,,0.00,0,WeatherHawk,2013-04-07 07:04:00,
2013-04-07 00:09:00,40.6,34.9,29.84,SSW,212,0.0,0.0,80,0.04,,,0.00,0,WeatherHawk,2013-04-07 07:09:00,
2013-04-07 00:15:00,40.6,35.6,29.84,SE,126,0.0,0.0,82,0.04,,,0.00,1,WeatherHawk,2013-04-07 07:15:00,
2013-04-07 00:20:00,40.9,35.5,29.84,West,266,0.0,0.0,81,0.04,,,0.00,1,WeatherHawk,2013-04-07 07:20:00,
2013-04-07 00:25:00,40.6,35.8,29.83,SW,224,0.0,0.0,83,0.04,,,0.00,0,WeatherHawk,2013-04-07 07:25:00,
2013-04-07 00:30:00,40.8,37.0,29.83,SE,129,0.0,0.0,86,0.04,,,0.00,0,WeatherHawk,2013-04-07 07:30:00,
2013-04-07 00:35:00,40.7,36.8,29.83,SE,129,0.0,0.0,86,0.00,,,0.00,0,WeatherHawk,2013-04-07 07:35:00,
2013-04-07 00:40:00,40.5,37.0,29.82,SE,129,0.0,0.0,87,0.00,,,0.00,0,WeatherHawk,2013-04-07 07:40:00,
2013-04-07 00:45:00,40.7,37.1,29.82,SE,129,0.0,0.0,87,0.00,,,0.00,1,WeatherHawk,2013-04-07 07:45:00,
2013-04-07 00:50:00,40.6,36.7,29.82,SE,129,0.0,0.0,86,0.00,,,0.00,0,WeatherHawk,2013-04-07 07:50:00,
2013-04-07 00:55:00,40.6,36.2,29.82,SW,233,0.0,0.0,84,0.00,,,0.00,0,WeatherHawk,2013-04-07 07:55:00,
2013-04-07 01:00:00,40.5,36.9,29.82,SW,233,0.0,0.0,87,0.00,,,0.00,0,WeatherHawk,2013-04-07 08:00:00,
2013-04-07 01:06:00,40.5,37.5,29.81,SE,136,0.0,-999.0,89,0.00,,,0.00,0,WeatherHawk,2013-04-07 08:06:00,
2013-04-07 01:11:00,41.8,38.2,29.81,SW,235,2.0,0.0,87,0.00,,,0.00,0,WeatherHawk,2013-04-07 08:11:00,
2013-04-07 01:16:00,41.4,36.7,29.80,SW,225,0.0,0.0,83,0.00,,,0.00,0,WeatherHawk,2013-04-07 08:16:00,
2013-04-07 01:22:00,42.6,36.5,29.80,SSE,159,4.0,0.0,79,0.00,,,0.00,0,WeatherHawk,2013-04-07 08:22:00,
2013-04-07 01:27:00,42.7,36.0,29.80,SSE,155,5.0,0.0,77,0.00,,,0.00,1,WeatherHawk,2013-04-07 08:27:00,
2013-04-07 01:32:00,42.6,35.3,29.79,SE,134,5.0,0.0,75,0.00,,,0.00,0,WeatherHawk,2013-04-07 08:32:00,
2013-04-07 01:37:00,42.6,35.6,29.78,SSE,153,4.0,0.0,76,0.00,,,0.00,1,WeatherHawk,2013-04-07 08:37:00,
2013-04-07 01:42:00,42.4,35.4,29.78,ESE,108,0.0,0.0,76,0.00,,,0.00,0,WeatherHawk,2013-04-07 08:42:00,
2013-04-07 01:47:00,42.6,34.6,29.78,SE,124,6.0,0.0,73,0.00,,,0.00,0,WeatherHawk,2013-04-07 08:47:00,
2013-04-07 01:52:00,42.7,34.7,29.78,SSE,167,6.0,0.0,73,0.00,,,0.00,0,WeatherHawk,2013-04-07 08:52:00,
2013-04-07 01:58:00,42.4,34.4,29.78,ESE,120,2.0,0.0,73,0.00,,,0.00,0,WeatherHawk,2013-04-07 08:58:00,
2013-04-07 02:03:00,42.6,34.9,29.77,SE,145,5.0,0.0,74,0.00,,,0.00,0,WeatherHawk,2013-04-07 09:03:00,
2013-04-07 02:08:00,42.7,34.6,29.76,ESE,123,3.0,0.0,73,0.00,,,0.00,0,WeatherHawk,2013-04-07 09:08:00,
2013-04-07 02:13:00,42.9,33.8,29.76,ESE,108,6.0,0.0,70,0.00,,,0.00,0,WeatherHawk,2013-04-07 09:13:00,
2013-04-07 02:18:00,42.9,34.5,29.76,SSE,164,5.0,0.0,72,0.00,,,0.00,0,WeatherHawk,2013-04-07 09:18:00,
2013-04-07 02:23:00,43.3,33.8,29.74,SE,134,7.0,0.0,69,0.00,,,0.00,0,WeatherHawk,2013-04-07 09:23:00,
2013-04-07 02:29:00,42.5,34.1,29.74,East,91,2.0,0.0,72,0.00,,,0.00,0,WeatherHawk,2013-04-07 09:29:00,
2013-04-07 02:34:00,42.5,34.5,29.73,SE,124,7.0,0.0,73,0.00,,,0.00,1,WeatherHawk,2013-04-07 09:34:00,
2013-04-07 02:39:00,42.5,33.8,29.73,SE,134,6.0,0.0,71,0.00,,,0.00,0,WeatherHawk,2013-04-07 09:39:00,
2013-04-07 02:45:00,42.6,33.5,29.73,ESE,108,8.0,0.0,70,0.00,,,0.00,1,WeatherHawk,2013-04-07 09:45:00,
2013-04-07 02:50:00,42.7,33.9,29.73,SE,132,3.0,0.0,71,0.00,,,0.00,0,WeatherHawk,2013-04-07 09:50:00,
2013-04-07 02:55:00,42.8,33.7,29.73,ESE,118,5.0,0.0,70,0.00,,,0.00,0,WeatherHawk,2013-04-07 09:55:00,
2013-04-07 03:00:00,43.3,32.4,29.72,ESE,108,6.0,0.0,65,0.00,,,0.00,0,WeatherHawk,2013-04-07 10:00:00,
2013-04-07 03:05:00,43.8,31.7,29.72,ESE,110,3.0,0.0,62,0.00,,,0.00,0,WeatherHawk,2013-04-07 10:05:00,
2013-04-07 03:10:00,44.1,32.0,29.71,SE,130,8.0,0.0,62,0.00,,,0.00,0,WeatherHawk,2013-04-07 10:10:00,
2013-04-07 03:16:00,45.2,31.3,29.72,SE,125,4.0,0.0,58,0.00,,,0.00,0,WeatherHawk,2013-04-07 10:16:00,
2013-04-07 03:21:00,44.8,30.5,29.72,SSW,204,3.0,0.0,57,0.00,,,0.00,0,WeatherHawk,2013-04-07 10:21:00,
2013-04-07 03:26:00,44.8,31.0,29.72,SE,134,3.0,0.0,58,0.00,,,0.00,0,WeatherHawk,2013-04-07 10:26:00,
2013-04-07 03:32:00,44.8,30.5,29.71,South,172,3.0,0.0,57,0.00,,,0.00,0,WeatherHawk,2013-04-07 10:32:00,
2013-04-07 03:37:00,45.3,31.4,29.71,South,170,4.0,0.0,58,0.00,,,0.00,1,WeatherHawk,2013-04-07 10:37:00,
2013-04-07 03:42:00,45.1,30.8,29.71,SE,142,4.0,0.0,57,0.00,,,0.00,0,WeatherHawk,2013-04-07 10:42:00,
2013-04-07 03:47:00,45.3,31.9,29.71,ESE,122,7.0,0.0,59,0.00,,,0.00,0,WeatherHawk,2013-04-07 10:47:00,
2013-04-07 03:52:00,45.1,31.6,29.71,SE,146,9.0,0.0,59,0.00,,,0.00,0,WeatherHawk,2013-04-07 10:52:00,
2013-04-07 03:57:00,44.8,31.8,29.71,SSE,149,5.0,0.0,60,0.00,,,0.00,0,WeatherHawk,2013-04-07 10:57:00,
2013-04-07 04:02:00,46.1,30.4,29.71,SSW,194,11.0,0.0,54,0.00,,,0.00,0,WeatherHawk,2013-04-07 11:02:00,
2013-04-07 04:07:00,45.7,30.9,29.71,SE,144,1.0,0.0,56,0.00,,,0.00,0,WeatherHawk,2013-04-07 11:07:00,
2013-04-07 04:12:00,46.4,29.3,29.71,SSE,168,9.0,0.0,51,0.00,,,0.00,0,WeatherHawk,2013-04-07 11:12:00,
2013-04-07 04:17:00,47.2,28.6,29.71,SSW,204,13.0,0.0,48,0.00,,,0.00,0,WeatherHawk,2013-04-07 11:17:00,
2013-04-07 04:22:00,46.7,25.4,29.71,WSW,249,9.0,0.0,43,0.00,,,0.00,0,WeatherHawk,2013-04-07 11:22:00,
2013-04-07 04:27:00,46.7,24.8,29.71,WSW,248,8.0,0.0,42,0.00,,,0.00,0,WeatherHawk,2013-04-07 11:27:00,
2013-04-07 04:32:00,46.9,23.2,29.71,WSW,251,7.0,0.0,39,0.00,,,0.00,0,WeatherHawk,2013-04-07 11:32:00,
2013-04-07 04:37:00,46.2,23.3,29.71,SSE,165,5.0,0.0,40,0.00,,,0.00,0,WeatherHawk,2013-04-07 11:37:00,
2013-04-07 04:42:00,47.1,22.8,29.71,West,268,5.0,0.0,38,0.00,,,0.00,0,WeatherHawk,2013-04-07 11:42:00,
2013-04-07 04:47:00,46.4,22.2,29.72,South,191,13.0,0.0,38,0.00,,,0.00,0,WeatherHawk,2013-04-07 11:47:00,
2013-04-07 04:53:00,45.9,23.6,29.73,South,184,7.0,0.0,41,0.00,,,0.00,0,WeatherHawk,2013-04-07 11:53:00,
2013-04-07 04:58:00,46.2,23.2,29.72,South,182,7.0,0.0,40,0.00,,,0.00,0,WeatherHawk,2013-04-07 11:58:00,
2013-04-07 05:04:00,46.2,24.9,29.72,SSE,163,8.0,0.0,43,0.00,,,0.00,1,WeatherHawk,2013-04-07 12:04:00,
2013-04-07 05:10:00,45.2,25.7,29.72,SSW,207,5.0,0.0,46,0.00,,,0.00,0,WeatherHawk,2013-04-07 12:10:00,
2013-04-07 05:15:00,45.8,26.2,29.72,South,181,14.0,0.0,46,0.00,,,0.00,0,WeatherHawk,2013-04-07 12:15:00,
2013-04-07 05:20:00,45.3,26.7,29.71,South,178,8.0,0.0,48,0.00,,,0.00,0,WeatherHawk,2013-04-07 12:20:00,
2013-04-07 05:25:00,44.7,27.7,29.73,SSW,200,8.0,0.0,51,0.00,,,0.00,0,WeatherHawk,2013-04-07 12:25:00,
2013-04-07 05:30:00,44.6,27.1,29.72,SSE,159,7.0,0.0,50,0.00,,,0.00,0,WeatherHawk,2013-04-07 12:30:00,
2013-04-07 05:36:00,44.6,27.6,29.73,SE,131,10.0,-999.0,51,0.00,,,0.00,0,WeatherHawk,2013-04-07 12:36:00,
2013-04-07 05:41:00,44.3,25.9,29.73,South,184,7.0,0.0,48,0.00,,,0.00,0,WeatherHawk,2013-04-07 12:41:00,
2013-04-07 05:46:00,44.7,26.3,29.73,SW,235,8.0,0.0,48,0.00,,,0.00,0,WeatherHawk,2013-04-07 12:46:00,
2013-04-07 05:51:00,44.8,25.8,29.74,WSW,242,7.0,0.0,47,0.00,,,0.00,0,WeatherHawk,2013-04-07 12:51:00,
2013-04-07 05:56:00,44.7,25.7,29.74,SSE,164,9.0,-999.0,47,0.00,,,0.00,0,WeatherHawk,2013-04-07 12:56:00,
2013-04-07 06:01:00,43.9,26.0,29.73,West,268,8.0,-999.0,49,0.00,,,0.00,0,WeatherHawk,2013-04-07 13:01:00,
2013-04-07 06:06:00,43.5,26.6,29.74,SSW,207,10.0,0.0,51,0.00,,,0.00,0,WeatherHawk,2013-04-07 13:06:00,
2013-04-07 06:11:00,43.3,26.9,29.74,WSW,241,6.0,-999.0,52,0.00,,,0.00,0,WeatherHawk,2013-04-07 13:11:00,
2013-04-07 06:16:00,43.4,26.9,29.74,SSW,197,8.0,0.0,52,0.00,,,0.00,0,WeatherHawk,2013-04-07 13:16:00,
2013-04-07 06:21:00,44.1,25.7,29.74,SW,222,13.0,0.0,48,0.00,,,0.00,0,WeatherHawk,2013-04-07 13:21:00,
2013-04-07 06:26:00,44.1,26.1,29.76,SW,222,11.0,0.0,49,0.00,,,0.00,0,WeatherHawk,2013-04-07 13:26:00,
2013-04-07 06:32:00,43.1,26.7,29.74,WSW,250,8.0,0.0,52,0.00,,,0.00,1,WeatherHawk,2013-04-07 13:32:00,
2013-04-07 06:37:00,42.2,27.6,29.75,SSW,194,8.0,0.0,56,0.00,,,0.00,2,WeatherHawk,2013-04-07 13:37:00,
2013-04-07 06:42:00,42.1,27.6,29.75,WSW,240,4.0,0.0,56,0.00,,,0.00,5,WeatherHawk,2013-04-07 13:42:00,
2013-04-07 06:48:00,42.2,27.2,29.76,South,177,5.0,0.0,55,0.00,,,0.00,3,WeatherHawk,2013-04-07 13:48:00,
2013-04-07 06:54:00,43.6,25.7,29.76,WSW,257,19.0,0.0,49,0.00,,,0.00,10,WeatherHawk,2013-04-07 13:54:00,
2013-04-07 07:00:00,42.5,25.7,29.77,WSW,251,6.0,0.0,51,0.00,,,0.00,15,WeatherHawk,2013-04-07 14:00:00,
2013-04-07 07:05:00,42.6,24.8,29.77,SW,227,5.0,0.0,49,0.00,,,0.00,19,WeatherHawk,2013-04-07 14:05:00,
2013-04-07 07:10:00,42.4,25.6,29.77,West,259,4.0,0.0,51,0.00,,,0.00,22,WeatherHawk,2013-04-07 14:10:00,
2013-04-07 07:15:00,42.6,25.7,29.77,SW,216,3.0,0.0,51,0.00,,,0.00,24,WeatherHawk,2013-04-07 14:15:00,
2013-04-07 07:20:00,43.1,25.7,29.77,WSW,244,8.0,0.0,50,0.00,,,0.00,26,WeatherHawk,2013-04-07 14:20:00,
2013-04-07 07:26:00,43.3,25.4,29.77,SW,226,10.0,0.0,49,0.00,,,0.00,34,WeatherHawk,2013-04-07 14:26:00,
2013-04-07 07:31:00,43.1,24.8,29.78,WNW,292,5.0,0.0,48,0.00,,,0.00,32,WeatherHawk,2013-04-07 14:31:00,
2013-04-07 07:37:00,43.1,23.7,29.77,NNW,340,6.0,0.0,46,0.00,,,0.00,27,WeatherHawk,2013-04-07 14:37:00,
2013-04-07 07:42:00,43.5,23.6,29.77,WSW,245,3.0,0.0,45,0.00,,,0.00,29,WeatherHawk,2013-04-07 14:42:00,
2013-04-07 07:48:00,44.0,23.0,29.78,SSW,211,11.0,0.0,43,0.00,,,0.00,39,WeatherHawk,2013-04-07 14:48:00,
2013-04-07 07:53:00,43.8,21.7,29.79,SW,226,12.0,0.0,41,0.00,,,0.00,58,WeatherHawk,2013-04-07 14:53:00,
2013-04-07 07:59:00,43.9,22.3,29.79,WSW,239,4.0,0.0,42,0.00,,,0.00,92,WeatherHawk,2013-04-07 14:59:00,
2013-04-07 08:04:00,43.9,22.9,29.79,West,263,11.0,0.0,43,0.00,,,0.00,219,WeatherHawk,2013-04-07 15:04:00,
2013-04-07 08:09:00,45.1,24.5,29.79,SW,221,4.0,0.0,44,0.00,,,0.00,227,WeatherHawk,2013-04-07 15:09:00,
2013-04-07 08:14:00,45.0,25.0,29.79,South,181,2.0,0.0,45,0.00,,,0.00,218,WeatherHawk,2013-04-07 15:14:00,
2013-04-07 08:20:00,44.6,24.1,29.79,South,186,3.0,0.0,44,0.00,,,0.00,242,WeatherHawk,2013-04-07 15:20:00,
2013-04-07 08:25:00,46.0,24.2,29.80,South,186,2.0,0.0,42,0.00,,,0.00,276,WeatherHawk,2013-04-07 15:25:00,
2013-04-07 08:30:00,44.7,21.8,29.80,SSW,197,15.0,0.0,40,0.00,,,0.00,220,WeatherHawk,2013-04-07 15:30:00,
2013-04-07 08:35:00,42.8,20.8,29.80,SSW,196,15.0,0.0,41,0.00,,,0.00,112,WeatherHawk,2013-04-07 15:35:00,
2013-04-07 08:41:00,43.7,22.1,29.79,South,181,12.0,-999.0,42,0.00,,,0.00,280,WeatherHawk,2013-04-07 15:41:00,
2013-04-07 08:46:00,43.9,21.2,29.80,SSW,212,14.0,-999.0,40,0.00,,,0.00,298,WeatherHawk,2013-04-07 15:46:00,
2013-04-07 08:52:00,45.0,19.0,29.80,SW,222,22.0,0.0,35,0.00,,,0.00,325,WeatherHawk,2013-04-07 15:52:00,
2013-04-07 08:58:00,44.9,20.3,29.81,South,184,9.0,0.0,37,0.00,,,0.00,335,WeatherHawk,2013-04-07 15:58:00,
2013-04-07 09:03:00,45.0,20.3,29.81,SSW,210,10.0,0.0,37,0.00,,,0.00,360,WeatherHawk,2013-04-07 16:03:00,
2013-04-07 09:08:00,45.6,20.8,29.81,SW,234,3.0,0.0,37,0.00,,,0.00,374,WeatherHawk,2013-04-07 16:08:00,
2013-04-07 09:13:00,47.7,23.3,29.81,SW,215,1.0,0.0,38,0.00,,,0.00,350,WeatherHawk,2013-04-07 16:13:00,
2013-04-07 09:19:00,46.3,21.5,29.81,SSW,194,8.0,0.0,37,0.00,,,0.00,385,WeatherHawk,2013-04-07 16:19:00,
2013-04-07 09:24:00,45.4,20.7,29.81,SSW,192,14.0,0.0,37,0.00,,,0.00,383,WeatherHawk,2013-04-07 16:24:00,
2013-04-07 09:30:00,46.0,23.6,29.81,SSW,211,6.0,0.0,41,0.00,,,0.00,451,WeatherHawk,2013-04-07 16:30:00,
2013-04-07 09:35:00,45.6,25.5,29.81,SW,224,5.0,0.0,45,0.00,,,0.00,357,WeatherHawk,2013-04-07 16:35:00,
2013-04-07 09:40:00,46.0,25.4,29.81,WSW,245,4.0,0.0,44,0.00,,,0.00,426,WeatherHawk,2013-04-07 16:40:00,
2013-04-07 09:45:00,44.1,21.9,29.81,SW,214,15.0,0.0,41,0.00,,,0.00,442,WeatherHawk,2013-04-07 16:45:00,
2013-04-07 09:51:00,43.7,22.7,29.81,SSE,164,17.0,0.0,43,0.00,,,0.00,428,WeatherHawk,2013-04-07 16:51:00,
2013-04-07 09:56:00,44.5,24.5,29.81,WSW,256,11.0,0.0,45,0.00,,,0.00,448,WeatherHawk,2013-04-07 16:56:00,
2013-04-07 10:01:00,44.3,24.3,29.82,South,191,12.0,-999.0,45,0.00,,,0.00,499,WeatherHawk,2013-04-07 17:01:00,
2013-04-07 10:06:00,43.5,23.6,29.82,WSW,245,14.0,0.0,45,0.00,,,0.00,510,WeatherHawk,2013-04-07 17:06:00,
2013-04-07 10:11:00,45.2,23.5,29.82,SSW,192,10.0,0.0,42,0.00,,,0.00,466,WeatherHawk,2013-04-07 17:11:00,
2013-04-07 10:17:00,45.5,22.6,29.82,SSW,205,8.0,0.0,40,0.00,,,0.00,511,WeatherHawk,2013-04-07 17:17:00,
2013-04-07 10:22:00,44.9,20.8,29.82,WSW,243,14.0,0.0,38,0.00,,,0.00,506,WeatherHawk,2013-04-07 17:22:00,
2013-04-07 10:27:00,44.6,21.2,29.82,West,267,15.0,0.0,39,0.00,,,0.00,440,WeatherHawk,2013-04-07 17:27:00,
2013-04-07 10:32:00,44.1,20.2,29.82,SW,220,14.0,0.0,38,0.00,,,0.00,538,WeatherHawk,2013-04-07 17:32:00,
2013-04-07 10:38:00,44.1,20.1,29.83,West,262,16.0,0.0,38,0.00,,,0.00,625,WeatherHawk,2013-04-07 17:38:00,
2013-04-07 10:43:00,44.4,22.8,29.84,SSW,213,12.0,0.0,42,0.00,,,0.00,498,WeatherHawk,2013-04-07 17:43:00,
2013-04-07 10:48:00,45.3,25.7,29.83,South,186,9.0,0.0,46,0.00,,,0.00,366,WeatherHawk,2013-04-07 17:48:00,
2013-04-07 10:54:00,44.4,22.7,29.84,WSW,256,9.0,0.0,42,0.00,,,0.00,330,WeatherHawk,2013-04-07 17:54:00,
2013-04-07 10:59:00,45.7,25.0,29.84,WSW,254,4.0,0.0,44,0.00,,,0.00,552,WeatherHawk,2013-04-07 17:59:00,
2013-04-07 11:04:00,44.3,22.6,29.85,WNW,288,5.0,0.0,42,0.00,,,0.00,578,WeatherHawk,2013-04-07 18:04:00,
2013-04-07 11:10:00,43.2,19.9,29.84,SSW,209,14.0,0.0,39,0.00,,,0.00,597,WeatherHawk,2013-04-07 18:10:00,
2013-04-07 11:15:00,43.3,19.4,29.84,WSW,254,13.0,0.0,38,0.00,,,0.00,618,WeatherHawk,2013-04-07 18:15:00,
2013-04-07 11:20:00,43.7,20.4,29.84,NW,304,5.0,0.0,39,0.00,,,0.00,602,WeatherHawk,2013-04-07 18:20:00,
2013-04-07 11:25:00,45.9,19.8,29.83,SSW,194,8.0,0.0,35,0.00,,,0.00,627,WeatherHawk,2013-04-07 18:25:00,
2013-04-07 11:30:00,44.2,19.0,29.83,WSW,244,13.0,0.0,36,0.00,,,0.00,552,WeatherHawk,2013-04-07 18:30:00,
2013-04-07 11:36:00,46.1,19.3,29.84,WSW,237,9.0,0.0,34,0.00,,,0.00,643,WeatherHawk,2013-04-07 18:36:00,
2013-04-07 11:41:00,45.5,18.8,29.84,WSW,251,12.0,0.0,34,0.00,,,0.00,670,WeatherHawk,2013-04-07 18:41:00,
2013-04-07 11:46:00,44.3,17.7,29.83,West,276,16.0,0.0,34,0.00,,,0.00,691,WeatherHawk,2013-04-07 18:46:00,
2013-04-07 11:51:00,44.3,17.7,29.83,West,266,17.0,0.0,34,0.00,,,0.00,759,WeatherHawk,2013-04-07 18:51:00,
2013-04-07 11:56:00,45.0,18.4,29.83,WSW,240,14.0,0.0,34,0.00,,,0.00,166,WeatherHawk,2013-04-07 18:56:00,
2013-04-07 12:02:00,45.2,16.4,29.83,West,261,10.0,0.0,31,0.00,,,0.00,698,WeatherHawk,2013-04-07 19:02:00,
2013-04-07 12:07:00,45.1,17.0,29.84,WSW,239,20.0,0.0,32,0.00,,,0.00,740,WeatherHawk,2013-04-07 19:07:00,
2013-04-07 12:12:00,44.4,17.1,29.84,SW,236,17.0,0.0,33,0.00,,,0.00,369,WeatherHawk,2013-04-07 19:12:00,
2013-04-07 12:18:00,46.6,26.4,29.84,WNW,302,7.0,0.0,45,0.00,,,0.00,686,WeatherHawk,2013-04-07 19:18:00,
2013-04-07 12:23:00,42.5,23.7,29.84,WSW,247,12.0,0.0,47,0.00,,,0.00,674,WeatherHawk,2013-04-07 19:23:00,
2013-04-07 12:29:00,44.9,25.9,29.84,SW,235,8.0,0.0,47,0.00,,,0.00,677,WeatherHawk,2013-04-07 19:29:00,
2013-04-07 12:34:00,43.4,23.5,29.83,WNW,284,8.0,0.0,45,0.00,,,0.00,685,WeatherHawk,2013-04-07 19:34:00,
2013-04-07 12:40:00,43.5,20.8,29.82,WNW,291,20.0,0.0,40,0.00,,,0.00,684,WeatherHawk,2013-04-07 19:40:00,
2013-04-07 12:45:00,43.2,18.1,29.82,West,280,21.0,0.0,36,0.00,,,0.00,686,WeatherHawk,2013-04-07 19:45:00,
2013-04-07 12:50:00,43.9,19.3,29.82,West,279,21.0,0.0,37,0.00,,,0.00,686,WeatherHawk,2013-04-07 19:50:00,
2013-04-07 12:56:00,46.5,20.4,29.82,WNW,302,13.0,-999.0,35,0.00,,,0.00,687,WeatherHawk,2013-04-07 19:56:00,
2013-04-07 13:01:00,47.1,20.2,29.82,West,275,10.0,0.0,34,0.00,,,0.00,686,WeatherHawk,2013-04-07 20:01:00,
2013-04-07 13:06:00,45.9,16.2,29.81,WNW,301,20.0,0.0,30,0.00,,,0.00,686,WeatherHawk,2013-04-07 20:06:00,
2013-04-07 13:12:00,45.5,14.3,29.82,NNW,327,29.0,0.0,28,0.00,,,0.00,765,WeatherHawk,2013-04-07 20:12:00,
2013-04-07 13:17:00,45.5,15.9,29.81,West,272,17.0,0.0,30,0.00,,,0.00,694,WeatherHawk,2013-04-07 20:17:00,
2013-04-07 13:22:00,46.5,18.2,29.81,WNW,292,20.0,0.0,32,0.00,,,0.00,689,WeatherHawk,2013-04-07 20:22:00,
2013-04-07 13:28:00,44.7,15.2,29.81,WSW,250,17.0,0.0,30,0.00,,,0.00,683,WeatherHawk,2013-04-07 20:28:00,
2013-04-07 13:33:00,46.5,18.2,29.82,SW,233,13.0,0.0,32,0.00,,,0.00,684,WeatherHawk,2013-04-07 20:33:00,
2013-04-07 13:38:00,46.4,18.2,29.82,South,174,13.0,0.0,32,0.00,,,0.00,684,WeatherHawk,2013-04-07 20:38:00,
2013-04-07 13:43:00,45.1,20.4,29.83,SSW,197,13.0,0.0,37,0.00,,,0.00,683,WeatherHawk,2013-04-07 20:43:00,
2013-04-07 13:48:00,42.6,20.0,29.82,West,259,18.0,0.0,40,0.00,,,0.00,681,WeatherHawk,2013-04-07 20:48:00,
2013-04-07 13:53:00,45.2,22.9,29.83,WSW,254,23.0,0.0,41,0.00,,,0.00,679,WeatherHawk,2013-04-07 20:53:00,
2013-04-07 13:58:00,44.2,20.9,29.82,NW,307,23.0,0.0,39,0.00,,,0.00,674,WeatherHawk,2013-04-07 20:58:00,
2013-04-07 14:03:00,41.6,24.9,29.83,WSW,249,13.0,0.0,51,0.00,,,0.00,668,WeatherHawk,2013-04-07 21:03:00,
2013-04-07 14:08:00,41.6,24.8,29.83,NW,305,14.0,0.0,51,0.00,,,0.00,667,WeatherHawk,2013-04-07 21:08:00,
2013-04-07 14:13:00,44.2,20.9,29.82,West,268,18.0,0.0,39,0.00,,,0.00,665,WeatherHawk,2013-04-07 21:13:00,
2013-04-07 14:18:00,48.2,19.0,29.82,SSW,208,11.0,0.0,31,0.00,,,0.00,662,WeatherHawk,2013-04-07 21:18:00,
2013-04-07 14:23:00,46.9,15.5,29.82,WNW,286,21.0,0.0,28,0.00,,,0.00,658,WeatherHawk,2013-04-07 21:23:00,
2013-04-07 14:28:00,45.9,13.8,29.82,WSW,258,12.0,0.0,27,0.00,,,0.00,652,WeatherHawk,2013-04-07 21:28:00,
2013-04-07 14:33:00,46.6,13.6,29.83,SW,221,12.0,0.0,26,0.00,,,0.00,643,WeatherHawk,2013-04-07 21:33:00,
2013-04-07 14:38:00,44.7,12.8,29.82,West,271,23.0,0.0,27,0.00,,,0.00,650,WeatherHawk,2013-04-07 21:38:00,
2013-04-07 14:44:00,45.0,16.9,29.83,WSW,256,16.0,0.0,32,0.00,,,0.00,637,WeatherHawk,2013-04-07 21:44:00,
2013-04-07 14:49:00,46.0,19.9,29.84,SW,233,17.0,0.0,35,0.00,,,0.00,630,WeatherHawk,2013-04-07 21:49:00,
2013-04-07 14:55:00,43.5,18.4,29.83,WSW,258,14.0,0.0,36,0.00,,,0.00,611,WeatherHawk,2013-04-07 21:55:00,
2013-04-07 15:00:00,42.2,19.6,29.83,West,279,11.0,0.0,40,0.00,,,0.00,637,WeatherHawk,2013-04-07 22:00:00,
2013-04-07 15:05:00,42.3,23.0,29.83,WSW,249,22.0,0.0,46,0.00,,,0.00,618,WeatherHawk,2013-04-07 22:05:00,
2013-04-07 15:10:00,41.8,21.0,29.83,West,269,17.0,0.0,43,0.00,,,0.00,600,WeatherHawk,2013-04-07 22:10:00,
2013-04-07 15:16:00,45.0,20.3,29.83,West,270,19.0,-999.0,37,0.00,,,0.00,592,WeatherHawk,2013-04-07 22:16:00,
2013-04-07 15:21:00,43.5,14.1,29.84,West,267,21.0,0.0,30,0.00,,,0.00,573,WeatherHawk,2013-04-07 22:21:00,
2013-04-07 15:26:00,43.4,10.8,29.83,WSW,250,17.0,0.0,26,0.00,,,0.00,574,WeatherHawk,2013-04-07 22:26:00,
2013-04-07 15:31:00,45.1,14.0,29.84,WNW,293,19.0,0.0,28,0.00,,,0.00,575,WeatherHawk,2013-04-07 22:31:00,
2013-04-07 15:37:00,42.6,8.4,29.84,WNW,300,25.0,0.0,24,0.00,,,0.00,359,WeatherHawk,2013-04-07 22:37:00,
2013-04-07 15:42:00,44.2,9.7,29.84,West,281,10.0,0.0,24,0.00,,,0.00,637,WeatherHawk,2013-04-07 22:42:00,
2013-04-07 15:48:00,43.3,5.0,29.85,West,278,27.0,0.0,20,0.00,,,0.00,547,WeatherHawk,2013-04-07 22:48:00,
2013-04-07 15:53:00,45.4,7.8,29.85,WSW,245,9.0,0.0,21,0.00,,,0.00,531,WeatherHawk,2013-04-07 22:53:00,
2013-04-07 15:58:00,44.1,6.7,29.85,West,274,18.0,0.0,21,0.00,,,0.00,523,WeatherHawk,2013-04-07 22:58:00,
2013-04-07 16:03:00,46.6,11.8,29.85,North,0,16.0,0.0,24,0.00,,,0.00,509,WeatherHawk,2013-04-07 23:03:00,
2013-04-07 16:08:00,42.4,12.4,29.85,WNW,289,27.0,0.0,29,0.00,,,0.00,420,WeatherHawk,2013-04-07 23:08:00,
2013-04-07 16:13:00,42.8,16.4,29.86,SW,226,15.0,0.0,34,0.00,,,0.00,506,WeatherHawk,2013-04-07 23:13:00,
2013-04-07 16:19:00,42.7,17.6,29.87,NNW,330,25.0,0.0,36,0.00,,,0.00,493,WeatherHawk,2013-04-07 23:19:00,
2013-04-07 16:24:00,44.1,20.1,29.87,SW,218,9.0,0.0,38,0.00,,,0.00,475,WeatherHawk,2013-04-07 23:24:00,
2013-04-07 16:30:00,42.6,16.2,29.86,West,272,16.0,0.0,34,0.00,,,0.00,405,WeatherHawk,2013-04-07 23:30:00,
2013-04-07 16:35:00,44.9,17.6,29.87,SW,217,4.0,0.0,33,0.00,,,0.00,438,WeatherHawk,2013-04-07 23:35:00,
2013-04-07 16:40:00,42.8,12.8,29.87,West,266,15.0,0.0,29,0.00,,,0.00,454,WeatherHawk,2013-04-07 23:40:00,
2013-04-07 16:45:00,42.5,13.3,29.87,NNW,327,17.0,0.0,30,0.00,,,0.00,390,WeatherHawk,2013-04-07 23:45:00,
2013-04-07 16:50:00,44.1,12.3,29.88,WNW,301,18.0,0.0,27,0.00,,,0.00,298,WeatherHawk,2013-04-07 23:50:00,
2013-04-07 16:55:00,42.5,13.3,29.88,West,278,13.0,0.0,30,0.00,,,0.00,161,WeatherHawk,2013-04-07 23:55:00,
2013-04-07 17:00:00,42.3,14.6,29.87,SW,232,22.0,0.0,32,0.00,,,0.00,279,WeatherHawk,2013-04-08 00:00:00,
2013-04-07 17:05:00,40.5,17.5,29.88,West,281,24.0,0.0,39,0.00,,,0.00,374,WeatherHawk,2013-04-08 00:05:00,
2013-04-07 17:10:00,39.9,20.3,29.89,West,273,20.0,0.0,45,0.00,,,0.00,283,WeatherHawk,2013-04-08 00:10:00,
2013-04-07 17:15:00,40.0,21.4,29.89,West,277,6.0,0.0,47,0.00,,,0.00,254,WeatherHawk,2013-04-08 00:15:00,
2013-04-07 17:20:00,39.2,20.6,29.88,West,271,11.0,0.0,47,0.00,,,0.00,344,WeatherHawk,2013-04-08 00:20:00,
2013-04-07 17:25:00,38.9,20.9,29.88,NW,310,12.0,0.0,48,0.00,,,0.00,276,WeatherHawk,2013-04-08 00:25:00,
2013-04-07 17:30:00,39.5,21.0,29.87,WNW,303,9.0,0.0,47,0.00,,,0.00,285,WeatherHawk,2013-04-08 00:30:00,
2013-04-07 17:35:00,40.3,20.6,29.88,NW,307,9.0,0.0,45,0.00,,,0.00,340,WeatherHawk,2013-04-08 00:35:00,
2013-04-07 17:40:00,40.0,19.8,29.88,WNW,295,4.0,0.0,44,0.00,,,0.00,280,WeatherHawk,2013-04-08 00:40:00,
2013-04-07 17:45:00,40.4,19.7,29.88,NW,308,3.0,0.0,43,0.00,,,0.00,289,WeatherHawk,2013-04-08 00:45:00,
2013-04-07 17:50:00,43.8,19.8,29.87,West,261,0.0,0.0,38,0.00,,,0.00,280,WeatherHawk,2013-04-08 00:50:00,
2013-04-07 17:55:00,41.6,17.2,29.87,North,0,3.0,0.0,37,0.00,,,0.00,303,WeatherHawk,2013-04-08 00:55:00,
2013-04-07 18:00:00,43.2,18.1,29.87,NE,38,0.0,0.0,36,0.00,,,0.00,258,WeatherHawk,2013-04-08 01:00:00,
2013-04-07 18:05:00,42.3,15.3,29.87,ENE,64,3.0,0.0,33,0.00,,,0.00,262,WeatherHawk,2013-04-08 01:05:00,
2013-04-07 18:10:00,41.8,16.2,29.86,North,0,4.0,0.0,35,0.00,,,0.00,252,WeatherHawk,2013-04-08 01:10:00,
2013-04-07 18:15:00,42.0,15.0,29.86,NE,50,1.0,0.0,33,0.00,,,0.00,122,WeatherHawk,2013-04-08 01:15:00,
2013-04-07 18:21:00,41.3,15.0,29.86,ENE,61,4.0,0.0,34,0.00,,,0.00,57,WeatherHawk,2013-04-08 01:21:00,
2013-04-07 18:26:00,41.2,16.3,29.87,ENE,76,3.0,0.0,36,0.00,,,0.00,63,WeatherHawk,2013-04-08 01:26:00,
2013-04-07 18:31:00,42.9,17.2,29.87,South,184,5.0,0.0,35,0.00,,,0.00,61,WeatherHawk,2013-04-08 01:31:00,
2013-04-07 18:37:00,42.3,14.5,29.87,WNW,293,2.0,0.0,32,0.00,,,0.00,68,WeatherHawk,2013-04-08 01:37:00,
2013-04-07 18:42:00,41.8,12.6,29.87,North,9,2.0,0.0,30,0.00,,,0.00,74,WeatherHawk,2013-04-08 01:42:00,
2013-04-07 18:47:00,41.9,12.8,29.87,SSW,195,0.0,0.0,30,0.00,,,0.00,51,WeatherHawk,2013-04-08 01:47:00,
2013-04-07 18:53:00,41.6,12.5,29.88,NW,321,6.0,0.0,30,0.00,,,0.00,27,WeatherHawk,2013-04-08 01:53:00,
2013-04-07 18:58:00,41.3,12.3,29.88,North,351,6.0,0.0,30,0.00,,,0.00,17,WeatherHawk,2013-04-08 01:58:00,
2013-04-07 19:04:00,41.5,13.9,29.88,North,4,8.0,0.0,32,0.00,,,0.00,10,WeatherHawk,2013-04-08 02:04:00,
2013-04-07 19:09:00,41.4,15.2,29.88,North,11,5.0,0.0,34,0.00,,,0.00,11,WeatherHawk,2013-04-08 02:09:00,
2013-04-07 19:15:00,41.2,13.6,29.88,WNW,284,8.0,0.0,32,0.00,,,0.00,10,WeatherHawk,2013-04-08 02:15:00,
2013-04-07 19:20:00,40.9,13.4,29.88,West,262,9.0,0.0,32,0.00,,,0.00,8,WeatherHawk,2013-04-08 02:20:00,
2013-04-07 19:25:00,40.7,13.9,29.88,SSW,193,5.0,0.0,33,0.00,,,0.00,9,WeatherHawk,2013-04-08 02:25:00,
2013-04-07 19:31:00,40.5,15.7,29.88,West,273,11.0,0.0,36,0.00,,,0.00,10,WeatherHawk,2013-04-08 02:31:00,
2013-04-07 19:36:00,40.2,16.0,29.88,West,260,6.0,0.0,37,0.00,,,0.00,5,WeatherHawk,2013-04-08 02:36:00,
2013-04-07 19:41:00,39.7,15.6,29.89,WSW,237,2.0,0.0,37,0.00,,,0.00,3,WeatherHawk,2013-04-08 02:41:00,
2013-04-07 19:46:00,39.8,16.3,29.88,SW,232,5.0,0.0,38,0.00,,,0.00,1,WeatherHawk,2013-04-08 02:46:00,
2013-04-07 19:52:00,39.7,16.2,29.89,SSW,194,4.0,0.0,38,0.00,,,0.00,0,WeatherHawk,2013-04-08 02:52:00,
2013-04-07 19:57:00,39.4,14.7,29.89,SSW,205,3.0,0.0,36,0.00,,,0.00,0,WeatherHawk,2013-04-08 02:57:00,
2013-04-07 20:03:00,39.5,14.8,29.89,SSW,197,7.0,0.0,36,0.00,,,0.00,0,WeatherHawk,2013-04-08 03:03:00,
2013-04-07 20:09:00,39.1,15.0,29.89,SW,214,6.0,0.0,37,0.00,,,0.00,1,WeatherHawk,2013-04-08 03:09:00,
2013-04-07 20:14:00,38.9,14.9,29.89,SW,234,4.0,0.0,37,0.00,,,0.00,0,WeatherHawk,2013-04-08 03:14:00,
2013-04-07 20:19:00,38.5,13.9,29.89,WSW,238,4.0,0.0,36,0.00,,,0.00,1,WeatherHawk,2013-04-08 03:19:00,
2013-04-07 20:24:00,38.7,14.1,29.89,SSW,194,5.0,0.0,36,0.00,,,0.00,0,WeatherHawk,2013-04-08 03:24:00,
2013-04-07 20:29:00,38.8,13.5,29.88,SSW,197,4.0,0.0,35,0.00,,,0.00,0,WeatherHawk,2013-04-08 03:29:00,
2013-04-07 20:34:00,39.0,12.4,29.89,SW,215,5.0,0.0,33,0.00,,,0.00,1,WeatherHawk,2013-04-08 03:34:00,
2013-04-07 20:39:00,38.8,12.9,29.89,South,185,3.0,0.0,34,0.00,,,0.00,0,WeatherHawk,2013-04-08 03:39:00,
2013-04-07 20:44:00,38.0,15.3,29.89,SSE,160,5.0,0.0,39,0.00,,,0.00,0,WeatherHawk,2013-04-08 03:44:00,
2013-04-07 20:50:00,36.9,15.9,29.89,South,189,0.0,0.0,42,0.00,,,0.00,0,WeatherHawk,2013-04-08 03:50:00,
2013-04-07 20:55:00,38.3,17.8,29.89,SSE,156,6.0,0.0,43,0.00,,,0.00,0,WeatherHawk,2013-04-08 03:55:00,
2013-04-07 21:00:00,37.6,16.6,29.89,SSE,161,5.0,0.0,42,0.00,,,0.00,0,WeatherHawk,2013-04-08 04:00:00,
2013-04-07 21:01:00,37.8,17.3,29.90,SSE,161,5.0,0.0,43,0.00,,,0.00,1,WeatherHawk,2013-04-08 04:01:00,
2013-04-07 21:06:00,36.9,17.1,29.90,SSE,166,5.0,-999.0,44,0.00,,,0.00,0,WeatherHawk,2013-04-08 04:06:00,
2013-04-07 21:11:00,37.7,17.8,29.90,SSW,193,6.0,0.0,44,0.00,,,0.00,0,WeatherHawk,2013-04-08 04:11:00,
2013-04-07 21:17:00,37.3,16.8,29.90,South,169,5.0,0.0,43,0.00,,,0.00,0,WeatherHawk,2013-04-08 04:17:00,
2013-04-07 21:22:00,37.9,17.4,29.90,SSE,160,6.0,0.0,43,0.00,,,0.00,0,WeatherHawk,2013-04-08 04:22:00,
2013-04-07 21:27:00,37.2,17.3,29.91,SSE,165,6.0,0.0,44,0.00,,,0.00,0,WeatherHawk,2013-04-08 04:27:00,
2013-04-07 21:32:00,37.3,17.4,29.91,SSE,147,6.0,0.0,44,0.00,,,0.00,0,WeatherHawk,2013-04-08 04:32:00,
2013-04-07 21:37:00,37.5,17.1,29.91,SSE,163,5.0,0.0,43,0.00,,,0.00,0,WeatherHawk,2013-04-08 04:37:00,
2013-04-07 21:42:00,37.2,17.9,29.91,South,174,10.0,0.0,45,0.00,,,0.00,0,WeatherHawk,2013-04-08 04:42:00,
2013-04-07 21:47:00,36.9,18.1,29.91,SSE,167,8.0,0.0,46,0.00,,,0.00,0,WeatherHawk,2013-04-08 04:47:00,
2013-04-07 21:52:00,36.7,18.4,29.91,SSE,159,6.0,0.0,47,0.00,,,0.00,0,WeatherHawk,2013-04-08 04:52:00,
2013-04-07 21:58:00,36.2,18.9,29.92,SE,143,7.0,0.0,49,0.00,,,0.00,0,WeatherHawk,2013-04-08 04:58:00,
2013-04-07 22:03:00,36.2,18.9,29.92,SE,139,5.0,0.0,49,0.00,,,0.00,0,WeatherHawk,2013-04-08 05:03:00,
2013-04-07 22:08:00,36.0,19.2,29.92,SSE,154,4.0,0.0,50,0.00,,,0.00,0,WeatherHawk,2013-04-08 05:08:00,
2013-04-07 22:13:00,36.7,18.9,29.92,SSE,159,5.0,0.0,48,0.00,,,0.00,1,WeatherHawk,2013-04-08 05:13:00,
2013-04-07 22:18:00,37.0,19.1,29.92,SSE,164,5.0,0.0,48,0.00,,,0.00,0,WeatherHawk,2013-04-08 05:18:00,
2013-04-07 22:24:00,36.7,18.4,29.91,SSE,156,0.0,0.0,47,0.00,,,0.00,0,WeatherHawk,2013-04-08 05:24:00,
2013-04-07 22:29:00,36.3,18.0,29.92,SSE,154,0.0,0.0,47,0.00,,,0.00,1,WeatherHawk,2013-04-08 05:29:00,
2013-04-07 22:35:00,36.1,19.3,29.92,SSE,162,0.0,0.0,50,0.00,,,0.00,1,WeatherHawk,2013-04-08 05:35:00,
2013-04-07 22:40:00,36.0,20.6,29.92,SSE,165,0.0,0.0,53,0.00,,,0.00,0,WeatherHawk,2013-04-08 05:40:00,
2013-04-07 22:45:00,35.9,20.0,29.93,SSE,152,0.0,0.0,52,0.00,,,0.00,0,WeatherHawk,2013-04-08 05:45:00,
2013-04-07 22:50:00,36.2,20.3,29.93,West,280,1.0,0.0,52,0.00,,,0.00,0,WeatherHawk,2013-04-08 05:50:00,
2013-04-07 22:55:00,35.7,19.8,29.93,WSW,240,0.0,0.0,52,0.00,,,0.00,0,WeatherHawk,2013-04-08 05:55:00,
2013-04-07 23:01:00,36.1,19.7,29.93,WSW,257,2.0,0.0,51,0.00,,,0.00,0,WeatherHawk,2013-04-08 06:01:00,
2013-04-07 23:07:00,36.4,19.1,29.93,WNW,295,7.0,0.0,49,0.00,,,0.00,0,WeatherHawk,2013-04-08 06:07:00,
2013-04-07 23:12:00,36.1,19.3,29.93,NNW,344,7.0,0.0,50,0.00,,,0.00,0,WeatherHawk,2013-04-08 06:12:00,
2013-04-07 23:18:00,36.0,19.2,29.93,NNW,347,0.0,0.0,50,0.00,,,0.00,0,WeatherHawk,2013-04-08 06:18:00,
2013-04-07 23:23:00,35.6,20.1,29.93,NW,324,0.0,0.0,53,0.00,,,0.00,0,WeatherHawk,2013-04-08 06:23:00,
2013-04-07 23:28:00,35.7,19.8,29.93,ESE,113,2.0,0.0,52,0.00,,,0.00,0,WeatherHawk,2013-04-08 06:28:00,
2013-04-07 23:33:00,35.1,19.7,29.94,SE,130,4.0,0.0,53,0.00,,,0.00,0,WeatherHawk,2013-04-08 06:33:00,
2013-04-07 23:38:00,35.1,18.8,29.94,SE,136,4.0,0.0,51,0.00,,,0.00,0,WeatherHawk,2013-04-08 06:38:00,
2013-04-07 23:44:00,36.3,19.4,29.94,SSE,152,3.0,0.0,50,0.00,,,0.00,0,WeatherHawk,2013-04-08 06:44:00,
2013-04-07 23:49:00,35.4,19.5,29.94,North,350,2.0,0.0,52,0.00,,,0.00,0,WeatherHawk,2013-04-08 06:49:00,
2013-04-07 23:54:00,35.1,21.4,29.95,North,351,0.0,0.0,57,0.00,,,0.00,0,WeatherHawk,2013-04-08 06:54:00,